Weather History for LEVD - July, 2013

Change the Weather History Date:

Saturday, July 27, 2013

  Actual Average Record
Temperature  
Mean Temperature 65 °F -  
Max Temperature 73 °F - - ()
Min Temperature 57 °F - - ()
Growing Degree Days 15 (Base 50)    
Moisture  
Dew Point 48 °F    
Average Humidity 57    
Maximum Humidity 94    
Minimum Humidity 33    
Precipitation  
Precipitation 0.00 in - - ()
Sea Level Pressure  
Sea Level Pressure 29.89 in    
Wind  
Wind Speed 9 mph ()    
Max Wind Speed 18 mph    
Max Gust Speed -    
Visibility 6.1 miles    
Events Rain    
T = Trace of Precipitation, MM = Missing Value Source: Averaged Metar Reports

Daily Weather History Graph

Daily Weather History Graph

Search for Another Location

Airport or City:

Trip Planner

Search our weather history database for the weather conditions in past years. The results will help you decide how hot, cold, wet, or windy it might be!

Date:

Astronomy

Jul. 27, 2013 Rise Set
Actual Time 7:08 AM CEST 9:42 PM CEST
Civil Twilight 6:36 AM CEST 10:14 PM CEST
Nautical Twilight 5:57 AM CEST 10:53 PM CEST
Astronomical Twilight 5:12 AM CEST 11:38 PM CEST
Moon No Moon Rise 12:39 PM CEST (7/27)
Length of Visible Light 15h 37m
Length of Day
14h 33m
Waning Gibbous, 73% of the Moon is Illuminated
Jul 27
Waning Gibbous
Jul 29
Last Quarter
Aug 6
New
Aug 14
First Quarter
Aug 21
Full

Hourly Weather History & Observations

Time (CEST) Temp. Dew Point Humidity Pressure Visibility Wind Dir Wind Speed Gust Speed Precip Events Conditions
7:00 AM 60.8 °F 50.0 °F 68% 29.86 in 6.2 mi SW 3.5 mph - N/A   Mostly Cloudy
7:30 AM 60.8 °F 50.0 °F 68% 29.86 in 6.2 mi WSW 5.8 mph - N/A   Mostly Cloudy
8:00 AM 59.0 °F 51.8 °F 77% 29.89 in 5.0 mi WSW 12.7 mph - N/A Rain Rain
8:30 AM 57.2 °F 53.6 °F 88% 29.86 in 6.2 mi West 8.1 mph - N/A   Mostly Cloudy
9:00 AM 57.2 °F 55.4 °F 94% 29.86 in 6.2 mi West 3.5 mph - N/A   Mostly Cloudy
9:30 AM 57.2 °F 55.4 °F 94% 29.86 in 6.2 mi Variable 1.2 mph - N/A   Mostly Cloudy
10:00 AM 59.0 °F 55.4 °F 88% 29.89 in 6.2 mi Variable 2.3 mph - N/A   Scattered Clouds
10:30 AM 59.0 °F 55.4 °F 88% 29.89 in 6.2 mi SSE 6.9 mph - N/A   Scattered Clouds
11:00 AM 60.8 °F 53.6 °F 77% 29.89 in 6.2 mi SSW 6.9 mph - N/A   Partly Cloudy
11:30 AM 60.8 °F 55.4 °F 82% 29.89 in 6.2 mi SSW 8.1 mph - N/A   Partly Cloudy
12:00 PM 60.8 °F 55.4 °F 82% 29.89 in 6.2 mi SSW 10.4 mph - N/A   Scattered Clouds
12:30 PM 62.6 °F 55.4 °F 77% 29.89 in 6.2 mi WSW 8.1 mph - N/A   Scattered Clouds
1:00 PM 64.4 °F 53.6 °F 68% 29.89 in 6.2 mi SW 9.2 mph - N/A   Scattered Clouds
1:30 PM 64.4 °F 50.0 °F 59% 29.92 in 6.2 mi WSW 10.4 mph - N/A   Scattered Clouds
2:00 PM 68.0 °F 48.2 °F 49% 29.89 in 6.2 mi WSW 12.7 mph - N/A   Scattered Clouds
2:30 PM 69.8 °F 46.4 °F 43% 29.89 in 6.2 mi SW 15.0 mph - N/A   Scattered Clouds
3:00 PM 69.8 °F 44.6 °F 40% 29.89 in 6.2 mi SW 13.8 mph - N/A   Scattered Clouds
3:30 PM 73.4 °F 42.8 °F 33% 29.89 in - SW 15.0 mph - N/A   Clear
4:00 PM 71.6 °F 44.6 °F 38% 29.89 in - SW 16.1 mph - N/A   Clear
4:30 PM 71.6 °F 42.8 °F 35% 29.89 in - WSW 16.1 mph - N/A   Clear
5:00 PM 71.6 °F 42.8 °F 35% 29.89 in - WSW 16.1 mph - N/A   Clear
5:30 PM 71.6 °F 42.8 °F 35% 29.89 in - WSW 16.1 mph - N/A   Clear
6:00 PM 71.6 °F 42.8 °F 35% 29.89 in - WSW 16.1 mph - N/A   Clear
6:30 PM 71.6 °F 42.8 °F 35% 29.89 in - WSW 16.1 mph - N/A   Clear
7:00 PM 69.8 °F 42.8 °F 38% 29.89 in - WSW 18.4 mph - N/A   Clear
7:30 PM 71.6 °F 42.8 °F 35% 29.89 in - WSW 16.1 mph - N/A   Clear
8:00 PM 69.8 °F 42.8 °F 38% 29.89 in - WSW 17.3 mph - N/A   Clear
8:30 PM 68.0 °F 42.8 °F 40% 29.89 in - WSW 13.8 mph - N/A   Clear
9:00 PM 68.0 °F 42.8 °F 40% 29.89 in - West 11.5 mph - N/A   Clear
9:30 PM 68.0 °F 44.6 °F 43% 29.92 in - WSW 11.5 mph - N/A   Clear